Showing default

KINEIS-5E, 62083

Orbit data source: Space-Track

KINEIS-5E, 62083 is a French payload satellite in SSO that was launched on Mon, 25 Nov 2024 UTC via an ELECTRON launch vehicle from the Rocket Lab Launch Complex (RLLC). Payload-class satellites include a variety of spacecraft equipped with specific instruments for various scientific and technological missions. These include communications satellites like Starlink; space stations such as the ISS; scientific satellites like the Hubble; Earth observation satellites from companies like Planet Labs, Umbra, and HawkEye 360; GPS; miniature CubeSats for education and research; and military/defense satellites.

Loading next visibility...
Identifier
62083, 2024-219C
Orbit
SSO
Last TLE update
10 hours ago
Origin
Manufacturer
KINEIS
Mission
Operational Commercial Communications
Bus & Motor
CUBESAT 16U, Unknown motor
Mass
28 kg wet, 28 kg dry
Launch date (UTC)
2024-11-25 (7 months ago)
Launch vehicle
ELECTRON
Launch site
Rocket Lab Launch Complex (RLLC)
Object type
Payload
Rocket body
Debris
Shape & HBR
Box + 2 Pan + 1 Ant, 1.6 m
Radar Cross Section
0.229 m², Medium (>0.1 m² and < 1m²)

Expand to show TLE details & history

TLE from 10 hours ago
0 KINEIS-5E
1 62083U 24219C   25188.88478241  .00000507  00000-0  88116-4 0  9993
2 62083  97.9723 349.9266 0001652  76.1888 283.9503 14.72256280 33103
Epoch: 2025-07-07T21:14Z
TLE epoch observation values (Epoch: 2025-07-07T21:14:05.2Z)
Latitude
-0.00003°
Longitude
105.31723°
Altitude
656.603 km
Speed
7.529 km/s
True Right ascension
23h 19m 42s
True Declination
0° 00' 00"
Sunlit
Object was in partial shadow at epoch
Visualization orbit readout
Latitude
65.78755°
Longitude
-56.21742°
Altitude
664.321 km
Speed
7.532 km/s
Apparent Right ascension
09h 21m 42s
Apparent Declination
20° 10' 21"
Sunlit
Object is in daylight
Visualization observer readout
Local Sidereal Time
19:37:33
Azimuth
332.911° NNW
Elevation
-25.187°
Doppler factor
1
Orbital elements
Apogee altitude
652.09 km
Perigee altitude
649.768 km
Semi-major axis
7,029.066 km
Eccentricity
0.00017
Inclination
97.9723°
RAAN
349.9266°
Arg. of periapsis
76.1888°
True anomaly
Unknown
Mean anomaly
283.9503°
Eccentric anomaly
Unknown
Mean motion
3.68296 °/min
Orbital period
97.75 mins
BSTAR
0.000088116
Loading maneuver chart data...
Loading SW <> Apogee altitude chart data...
Loading historical data...
Loading historical data...
Loading historical data...
Loading historical data...
Loading historical data...
Loading historical data...
Loading historical data...

KINEIS-5E Visibility forecast

Observer location: undefined°, undefined°

Span
Click to sort rows by Start time (UTC) header in descending order
Start Az.
Max El. time (UTC)
Max El. Az.
Max El.
End time (UTC)
End Az.
8 mins2025-07-08 10:23:58.959Z149.383° SSE2025-07-08 10:27:58.959Z87.945° E38.337°2025-07-08 10:31:58.959Z359.346° N
7 mins2025-07-08 23:54:58.959Z359.765° N2025-07-08 23:57:58.959Z264.809° W40.906°2025-07-09 00:01:58.959Z206.108° SW
|